This is the latest recevied weather packets stored in our database for station/object K6GMW. If no packets are shown the sender has not sent any weather packets the latest 1 day(s).
| Time | Temp. | Humidity | Pressure | Rain* | Wind** | Luminosity | Snow |
|---|---|---|---|---|---|---|---|
| 1777983586 | 21.11° C | 84% | 1007.4 hPa | 0 mm | 4.92 m/s, 194° | 13 W/m² | - |
| 1777983283 | 21.11° C | 85% | 1007.5 hPa | 0 mm | 2.68 m/s, 153° | 11 W/m² | - |
| 1777982979 | 21.11° C | 84% | 1007.4 hPa | 0 mm | 2.68 m/s, 173° | 9 W/m² | - |
| 1777982676 | 21.11° C | 84% | 1007.4 hPa | 0 mm | 3.13 m/s, 177° | 8 W/m² | - |
| 1777982375 | 21.11° C | 84% | 1007.4 hPa | 0 mm | 3.13 m/s, 187° | 6 W/m² | - |
| 1777982071 | 21.11° C | 84% | 1007.6 hPa | 0 mm | 3.13 m/s, 181° | 5 W/m² | - |
| 1777981769 | 21.11° C | 84% | 1007.7 hPa | 0 mm | 2.68 m/s, 170° | 3 W/m² | - |
| 1777981465 | 21.11° C | 84% | 1007.7 hPa | 0 mm | 2.68 m/s, 191° | 2 W/m² | - |
| 1777981161 | 21.11° C | 83% | 1007.7 hPa | 0 mm | 2.68 m/s, 190° | 1 W/m² | - |
| 1777980859 | 21.11° C | 83% | 1007.7 hPa | 0 mm | 2.24 m/s, 200° | 1 W/m² | - |
| 1777980554 | 21.11° C | 83% | 1007.5 hPa | 0 mm | 2.68 m/s, 192° | 0 W/m² | - |
| 1777980252 | 21.11° C | 83% | 1007.6 hPa | 0 mm | 3.58 m/s, 194° | 0 W/m² | - |
| 1777979948 | 21.11° C | 83% | 1007.5 hPa | 0 mm | 4.02 m/s, 183° | 0 W/m² | - |
| 1777979643 | 21.11° C | 83% | 1007.5 hPa | 0 mm | 3.58 m/s, 190° | 0 W/m² | - |
| 1777979339 | 21.11° C | 83% | 1007.6 hPa | 0 mm | 2.24 m/s, 147° | 0 W/m² | - |
| 1777979037 | 21.11° C | 83% | 1007.4 hPa | 0 mm | 4.02 m/s, 203° | 0 W/m² | - |
| 1777978733 | 20.56° C | 83% | 1007.3 hPa | 0 mm | 3.58 m/s, 196° | 0 W/m² | - |
| 1777978429 | 20.56° C | 83% | 1007.2 hPa | 0 mm | 3.58 m/s, 178° | 0 W/m² | - |
| 1777978126 | 20.56° C | 83% | 1007.3 hPa | 0 mm | 2.24 m/s, 194° | 0 W/m² | - |
| 1777977824 | 20.56° C | 83% | 1007.3 hPa | 0 mm | 4.02 m/s, 173° | 0 W/m² | - |
| 1777977519 | 20.56° C | 84% | 1007.4 hPa | 0 mm | 1.79 m/s, 177° | 0 W/m² | - |
| 1777977217 | 20.56° C | 84% | 1007.4 hPa | 0 mm | 3.13 m/s, 193° | 0 W/m² | - |
| 1777976914 | 20.56° C | 84% | 1007.4 hPa | 0 mm | 4.92 m/s, 153° | 0 W/m² | - |
| 1777976611 | 20.56° C | 84% | 1007.4 hPa | 0 mm | 2.68 m/s, 175° | 0 W/m² | - |
| 1777976307 | 20.56° C | 84% | 1007.4 hPa | 0 mm | 2.24 m/s, 198° | 0 W/m² | - |
* Rain latest hour (hover to see other rain measurements)
** Current wind speed in m/s (hover to see current wind gust speed)